Regional Weather Roundup
Issued by NWS

Home | Current Version | Previous Version | Text Only | Print | Product List | Glossary Off
Versions: 1 2 3 4 5 6 7 8 9 10 11 12 13 14 15 16 17 18 19 20 21 22 23 24 25 26 27 28 29 30 31 32 33 34 35 36 37 38 39 40 41 42 43 44 45 46 47 48 49 50

275
ASUS43 KLOT 290409
RWRIL

ILLINOIS REGIONAL WEATHER ROUNDUP
NATIONAL WEATHER SERVICE CHICAGO/ROMEOVILLE IL
1100 PM CDT SUN MAY 28 2017

NOTE: "FAIR" INDICATES FEW OR NO CLOUDS BELOW 12,000 FEET WITH NO
SIGNIFICANT WEATHER AND/OR OBSTRUCTIONS TO VISIBILITY.

* THESE STATIONS ARE NOT UNDER NWS QUALITY CONTROL. THEY ALSO MAY NOT
  REPORT WEATHER SUCH AS PRECIPITATION OR FOG.

ILZ001-002-007-009-015-016-024-290500-
NORTHWEST ILLINOIS

CITY           SKY/WX    TMP DP  RH WIND       PRES   REMARKS
MOLINE         MOCLDY    65  51  60 W3        29.78R
STERLING*      PTCLDY    60  55  83 CALM      29.78S
SAVANNA*       MOCLDY    61  54  78 CALM      29.78S
$$

ILZ003-004-008-010-011-017-018-290500-
NORTH CENTRAL ILLINOIS

CITY           SKY/WX    TMP DP  RH WIND       PRES   REMARKS
ROCKFORD       MOCLDY    60  52  74 S3        29.77F
FREEPORT*      PTCLDY    60  49  67 SW7       29.79S
ROCHELLE*      CLOUDY    59  55  84 SW5       29.78F
DE KALB*       MOCLDY    62  50  64 SW3       29.79S
PERU*          CLEAR     64  49  58 SW6       29.78F
$$

ILZ005-006-012>014-019>023-290500-
NORTHEAST ILLINOIS

CITY           SKY/WX    TMP DP  RH WIND       PRES   REMARKS
CHICAGO-OHARE  CLEAR     65  48  54 SW3       29.76S
CHICAGO-MIDWAY CLEAR     67  50  54 SW6       29.76F
AURORA         CLEAR     59  53  80 CALM      29.78S
LANSING*       CLEAR     58  54  85 CALM      29.78S
JOLIET*        CLEAR     58  55  88 CALM      29.78F
WAUKEGAN       CLEAR     56  49  77 VRB3      29.74F
DUPAGE AIRPORT CLEAR     58  52  80 S3        29.77S
KANKAKEE*      CLEAR     62  52  69 CALM      29.80F
WHEELING       CLEAR     60  50  69 CALM      29.77S
MORRIS*        CLEAR     63  50  62 CALM      29.77F
ROMEOVILLE*    CLEAR     62  53  73 SW3       29.78F
NORTHERLY ISL    N/A     67  47  48 W2          N/A
$$

LMZ740>746-290500-
SOUTHERN LAKE MICHIGAN

STATION/POSITION SKY/WX   TEMP    WIND        PRES    VSBY  WAVE
                          AIR SEA DIR/SP/G                  HT/PER
                          (F)     (DEG/KT/KT) (MB)    (MI)  (FT/S)
SOUTHERN BUOY              51 49  230/ 10/ 12 1007.2          0
WILMETTE HARBOR            60 56  230/  6/  6   N/A           0
HARRISON CRIB              72     270/  9/ 10   N/A
BURNHAM HARBOR             66      CALM  /  5   N/A
CALUMET HARBOR             67     210/  3/  4 1007.7F
BURNS HARBOR               68     240/  7/  8 1008.8S
MICHIGAN CITY              67     220/ 10/ 11   N/A
MICHIGAN CITY 6N           61 58  230/  6/  8   N/A           1
ST. JOSEPH                 61 59  200/  6/  8 1007.9          0
$$

ILZ025>027-034>036-040-047-049-050-058-095>099-290500-
WEST-CENTRAL ILLINOIS

CITY           SKY/WX    TMP DP  RH WIND       PRES   REMARKS
QUINCY         CLEAR     63  52  67 SW6       29.84S
GALESBURG*     PTCLDY    63  51  66 SW7       29.79F
MACOMB*        CLEAR     64  50  60 SW9       29.84F
JACKSONVILLE*  CLEAR     62  58  88 S6        29.85R
PITTSFIELD*    CLEAR     66  56  71 SW3       29.87S
$$

ILZ028>032-037-038-041>044-048-051>054-059>061-290500-
CENTRAL ILLINOIS

CITY           SKY/WX    TMP DP  RH WIND       PRES   REMARKS
PONTIAC        CLEAR     65  54  66 SW3       29.80F
BLOOMINGTON    CLEAR     63  52  67 SW6       29.83F
DECATUR        CLEAR     63  54  72 SW9       29.85R
PEORIA         CLEAR     61  52  72 CALM      29.81S
LACON*         CLEAR     58  53  81 CALM      29.78F
LINCOLN*       CLEAR     66  56  69 CALM      29.83F
SPRINGFIELD    CLEAR     63  59  87 SW5       29.85R
TAYLORVILLE    CLEAR     64  56  75 SW7       29.87R
$$

ILZ033-039-045-046-055>057-062-063-290500-
EAST-CENTRAL ILLINOIS

CITY           SKY/WX    TMP DP  RH WIND       PRES   REMARKS
CHAMPAIGN      CLEAR     65  54  67 W7        29.83S
RANTOUL*       CLEAR     65  56  71 W5        29.83S
MATTOON        CLOUDY    69  54  58 SW7       29.86R
PARIS*         MOCLDY    62  57  84 S8        29.86R
$$

ILZ079-100>102-290500-
SOUTHWEST ILLINOIS

CITY           SKY/WX    TMP DP  RH WIND       PRES   REMARKS
ALTON          PTCLDY    66  56  72 SW7       29.90S
BELLEVILLE     PTCLDY    68  58  70 SW6       29.90F
CAHOKIA*       PTCLDY    69  55  60 S3        29.89S
SPARTA*        CLEAR     67  58  72 CALM      29.92S
$$

ILZ064>066-069>071-074>076-080>082-084>086-088>090-092>094-290500-
SOUTH-CENTRAL ILLINOIS

CITY           SKY/WX    TMP DP  RH WIND       PRES   REMARKS
CARBONDALE     CLEAR     64  63  96 W5        29.91R
CAIRO*         CLEAR     68  67  98 SW3       29.91S
EFFINGHAM*     CLOUDY    68  58  71 SW5       29.89F
MARION         CLEAR     66  66 100 CALM      29.92S
MT. VERNON       N/A     60  59  96 CALM      29.90F
CENTRALIA*     CLEAR     66  59  78 SW7       29.89F
SALEM*         PTCLDY    66  57  73 SW5       29.89F
METROPOLIS*    FOG       65  65  99 CALM      29.92S VSB 1/2
$$

ILZ067-068-072-073-078-083-087-091-290500-
SOUTHEAST ILLINOIS

CITY           SKY/WX    TMP DP  RH WIND       PRES   REMARKS
LAWRENCEVILLE  CLEAR     68  63  84 W7        29.86F
FLORA*         CLEAR     67  58  72 W7        29.89S
FAIRFIELD*     CLEAR     68  61  78 CALM      29.88S
HARRISBURG*    CLEAR     65  63  94 CALM      29.91R
ROBINSON*      CLEAR     66  62  86 W8        29.87S
CARMI*         CLEAR     65  63  93 SW6       29.89R
$$

ABBREVIATIONS USED IN REMARKS
   TC - TEMPERATURE IN CELSIUS
  WCI - WIND CHILL INDEX
   HX - HEAT INDEX
  VSB - VISIBILITY
$$





USA.gov is the U.S. government's official web portal to all federal, state and local government web resources and services.